Notices

What's New in latest Release from April 7th, 2021:

- Updated Glossary, including Speed of Maximum Gust, and Total Hourly Precipitation

- Updated national and regional climate services offices contacts and prices information

- Addition of station inventory lists for 1981-2010, 1971-2000, and 1961-1990 Normals.

If you haven't already, please take our survey and provide feedback about our website: https://eccc.sondage-survey.ca/f/LanguageSelection.aspx?s=442ca660-fcf1-47c0-95a9-59707d6fd709

Hourly Data Report for February 11, 2012

HALIFAX STANFIELD INT'L A
NOVA SCOTIA

44°52'48.060" N
63°30'00.050" W
145.40 m
8202250
71395
YHZ

Download Data

Hourly Data (February 2012)
Hourly Data Report for February 11, 2012
TIME
LST
Temp Definition
°C
Dew Point Definition
°C
Rel Hum Definition
%
Precip. Amount Definition
mm

Wind Dir Definition
10's deg

Wind Spd Definition
km/h
Visibility Definition
km
Stn Press Definition
kPa
Hmdx Definition


Wind Chill Definition


Weather Definition


00:00 0.7 -0.1 94   18 22 24.1 99.89     Mostly Cloudy
01:00 1.0 0.4 96   17 28 24.1 99.81     Mainly Clear
02:00 1.2 0.6 96   18 22 24.1 99.76     Mainly Clear
03:00 1.8 1.0 94   18 15 24.1 99.71     Cloudy
04:00 1.9 1.1 94   16 13 24.1 99.60     Cloudy
05:00 2.4 2.0 97   16 13 4.8 99.56     Drizzle,Fog
06:00 3.0 2.7 98   19 17 4.8 99.55     Drizzle,Fog
07:00 3.2 2.9 98   20 15 12.9 99.50     Drizzle
08:00 3.1 2.8 98   16 13 3.2 99.46     Fog
09:00 3.1 2.7 97   16 13 4.8 99.41     Fog
10:00 3.7 3.4 98   14 17 11.3 99.31     Cloudy
11:00 3.8 3.3 97   16 20 16.1 99.28     Rain
12:00 3.8 3.5 98   16 15 16.1 99.17     Rain
13:00 3.8 3.5 98   15 13 4.8 99.03     Rain,Fog
14:00 3.6 3.3 98   14 7 6.4 98.87     Rain,Fog
15:00 3.6 3.4 99   9 9 6.4 98.65     Rain,Fog
16:00 3.3 3.2 99   7 6 6.4 98.52     Rain,Fog
17:00 3.0 2.8 99   5 11 3.2 98.30     Rain,Fog
18:00 3.2 3.2 100   36 11 4.8 98.21     Rain,Fog
19:00 2.4 2.4 100   33 11 0.4 98.07     Rain,Fog
20:00 2.5 2.3 99   1 17 0.8 97.86     Rain,Fog
21:00 2.3 2.3 100   1 22 1.2 97.60     Rain,Fog
22:00 2.1 2.0 99   36 19 0.8 97.36     Rain,Fog
23:00 2.2 2.2 100   1 24 0.8 97.06     Rain,Fog

Notes on Data Quality.

Legend

  • E = Estimated
  • M = Missing
  • NA = Not Available*
  • [empty] = Indicates an unobserved value
Date modified: